When you browse on this site, cookies collect data to enhance your experience and personalize the content and advertising you see.
Visit our Privacy Policy to learn more. By continuing to use the site, you agree to this use of cookies and data.
  • In United Kingdom
  • List of Countries
  • For 7 days
  • Water Temperature
  • Satellite Maps
  • Weather Map
  • Weather Widgets
  • user-avatar
    Login

    Hourly Weather Innsbruck

    Today, 18 July, Thursday

    Time Temperature Precipitation Wind Pressure Humidity
    00:00 +6°C° 0.1 mm 1 mps 594 mmHg 94%
    01:00 +6°C° 0 mm 1 mps 595 mmHg 93%
    02:00 +6°C° 0 mm 1 mps 594 mmHg 93%
    03:00 +6°C° 0 mm 1 mps 594 mmHg 93%
    04:00 +6°C° 0 mm 1 mps 594 mmHg 92%
    05:00 +7°C° 0 mm 1 mps 595 mmHg 89%
    06:00 +9°C° 0 mm 1 mps 596 mmHg 86%
    07:00 +11°C° 0 mm 1 mps 597 mmHg 79%
    08:00 +12°C° 0.1 mm 1 mps 597 mmHg 72%
    09:00 +13°C° 0.1 mm 1 mps 598 mmHg 64%
    10:00 +14°C° 0.1 mm 1 mps 598 mmHg 57%
    11:00 +15°C° 0.4 mm 1 mps 599 mmHg 57%
    12:00 +15°C° 0.4 mm 2 mps 599 mmHg 57%
    13:00 +15°C° 0.4 mm 2 mps 599 mmHg 56%
    14:00 +15°C° 0.9 mm 2 mps 599 mmHg 60%
    15:00 +14°C° 0.9 mm 2 mps 599 mmHg 63%
    16:00 +14°C° 0.9 mm 2 mps 599 mmHg 67%
    17:00 +13°C° 0.5 mm 1 mps 598 mmHg 72%
    18:00 +12°C° 0.5 mm 1 mps 598 mmHg 78%
    19:00 +11°C° 0.5 mm 1 mps 598 mmHg 83%
    20:00 +10°C° 0 mm 1 mps 597 mmHg 86%
    21:00 +8°C° 0 mm 1 mps 597 mmHg 88%
    22:00 +5°C° 0 mm 0 mps 596 mmHg 91%
    23:00 +6°C° 0 mm 1 mps 596 mmHg 91%

    Tomorrow, 19 July, Friday

    Time Temperature Precipitation Wind Pressure Humidity
    00:00 +6°C° 0 mm 1 mps 596 mmHg 91%
    01:00 +6°C° 0 mm 1 mps 596 mmHg 91%
    02:00 +6°C° 0 mm 1 mps 596 mmHg 90%
    03:00 +5°C° 0 mm 0 mps 596 mmHg 89%
    04:00 +5°C° 0 mm 0 mps 596 mmHg 88%
    05:00 +6°C° 0 mm 0 mps 597 mmHg 85%
    06:00 +8°C° 0 mm 0 mps 598 mmHg 81%
    07:00 +9°C° 0 mm 0 mps 599 mmHg 78%
    08:00 +11°C° 0 mm 0 mps 600 mmHg 68%
    09:00 +14°C° 0 mm 1 mps 601 mmHg 59%
    10:00 +18°C° 0 mm 1 mps 601 mmHg 49%
    11:00 +18°C° 0 mm 1 mps 602 mmHg 48%
    12:00 +19°C° 0 mm 1 mps 602 mmHg 46%
    13:00 +20°C° 0 mm 1 mps 602 mmHg 44%
    14:00 +19°C° 0.2 mm 1 mps 602 mmHg 47%
    15:00 +19°C° 0.2 mm 1 mps 601 mmHg 50%
    16:00 +17°C° 0.2 mm 2 mps 601 mmHg 53%
    17:00 +16°C° 0.6 mm 1 mps 601 mmHg 64%
    18:00 +14°C° 0.6 mm 1 mps 600 mmHg 76%
    19:00 +13°C° 0.6 mm 1 mps 600 mmHg 87%
    20:00 +11°C° 0.1 mm 1 mps 599 mmHg 89%
    21:00 +10°C° 0.1 mm 1 mps 599 mmHg 91%
    22:00 +8°C° 0.1 mm 1 mps 598 mmHg 93%
    23:00 +8°C° 0 mm 1 mps 598 mmHg 93%

    Day after tomorrow, 20 July, Saturday

    Time Temperature Precipitation Wind Pressure Humidity
    00:00 +8°C° 0 mm 1 mps 598 mmHg 92%
    01:00 +8°C° 0 mm 1 mps 598 mmHg 92%
    02:00 +7°C° 0 mm 1 mps 598 mmHg 92%
    03:00 +7°C° 0 mm 1 mps 598 mmHg 91%
    04:00 +7°C° 0 mm 1 mps 598 mmHg 91%
    05:00 +9°C° 0 mm 1 mps 599 mmHg 88%
    06:00 +11°C° 0 mm 1 mps 600 mmHg 86%
    07:00 +12°C° 0 mm 1 mps 600 mmHg 83%
    08:00 +15°C° 0 mm 1 mps 601 mmHg 74%
    09:00 +18°C° 0 mm 1 mps 602 mmHg 64%
    10:00 +20°C° 0 mm 1 mps 603 mmHg 54%
    11:00 +20°C° 0.4 mm 1 mps 604 mmHg 53%
    12:00 +21°C° 0.4 mm 1 mps 604 mmHg 53%
    13:00 +21°C° 0.4 mm 1 mps 604 mmHg 52%
    14:00 +20°C° 1 mm 1 mps 603 mmHg 59%
    15:00 +19°C° 1 mm 1 mps 603 mmHg 65%
    16:00 +18°C° 1 mm 1 mps 602 mmHg 72%
    17:00 +16°C° 1 mm 1 mps 602 mmHg 76%
    18:00 +14°C° 1 mm 0 mps 602 mmHg 80%
    19:00 +13°C° 1 mm 0 mps 602 mmHg 84%
    20:00 +12°C° 0.1 mm 0 mps 601 mmHg 85%
    21:00 +11°C° 0.1 mm 1 mps 601 mmHg 85%
    22:00 +10°C° 0.1 mm 1 mps 600 mmHg 86%
    23:00 +9°C° 0 mm 1 mps 600 mmHg 85%

    21 July, Sunday

    Time Temperature Precipitation Wind Pressure Humidity
    00:00 +9°C° 0 mm 1 mps 600 mmHg 85%
    01:00 +9°C° 0 mm 1 mps 600 mmHg 84%
    02:00 +9°C° 0 mm 1 mps 600 mmHg 83%
    03:00 +9°C° 0 mm 1 mps 600 mmHg 83%
    04:00 +9°C° 0 mm 1 mps 600 mmHg 82%
    05:00 +11°C° 0 mm 1 mps 601 mmHg 78%
    06:00 +12°C° 0 mm 1 mps 602 mmHg 75%
    07:00 +14°C° 0 mm 1 mps 603 mmHg 71%
    08:00 +16°C° 0.1 mm 1 mps 604 mmHg 64%
    09:00 +19°C° 0.1 mm 1 mps 605 mmHg 57%
    10:00 +21°C° 0.1 mm 1 mps 606 mmHg 50%
    11:00 +21°C° 0.3 mm 1 mps 606 mmHg 50%
    12:00 +20°C° 0.3 mm 2 mps 606 mmHg 49%
    13:00 +21°C° 0.3 mm 2 mps 606 mmHg 49%
    14:00 +20°C° 0.8 mm 2 mps 606 mmHg 56%
    15:00 +19°C° 0.8 mm 2 mps 606 mmHg 63%
    16:00 +18°C° 0.8 mm 2 mps 605 mmHg 70%
    17:00 +17°C° 0.6 mm 2 mps 605 mmHg 76%
    18:00 +16°C° 0.6 mm 1 mps 605 mmHg 81%
    19:00 +15°C° 0.6 mm 1 mps 605 mmHg 87%
    20:00 +13°C° 0 mm 1 mps 604 mmHg 88%
    21:00 +12°C° 0 mm 1 mps 604 mmHg 90%
    22:00 +9°C° 0 mm 0 mps 603 mmHg 91%
    23:00 +9°C° 0 mm 1 mps 603 mmHg 89%

    22 July, Monday

    Time Temperature Precipitation Wind Pressure Humidity
    00:00 +9°C° 0 mm 1 mps 603 mmHg 88%
    01:00 +9°C° 0 mm 1 mps 602 mmHg 86%
    02:00 +9°C° 0 mm 1 mps 602 mmHg 84%
    03:00 +9°C° 0 mm 1 mps 602 mmHg 83%
    04:00 +8°C° 0 mm 1 mps 602 mmHg 81%
    05:00 +11°C° 0 mm 1 mps 603 mmHg 77%
    06:00 +12°C° 0 mm 0 mps 604 mmHg 72%
    07:00 +14°C° 0 mm 0 mps 605 mmHg 68%
    08:00 +18°C° 0 mm 1 mps 606 mmHg 61%
    09:00 +20°C° 0 mm 1 mps 607 mmHg 53%
    10:00 +22°C° 0 mm 1 mps 608 mmHg 46%
    11:00 +23°C° 0 mm 1 mps 608 mmHg 44%
    12:00 +23°C° 0 mm 1 mps 608 mmHg 43%
    13:00 +23°C° 0 mm 2 mps 608 mmHg 41%
    14:00 +23°C° 0.1 mm 2 mps 608 mmHg 46%
    15:00 +21°C° 0.1 mm 2 mps 607 mmHg 50%
    16:00 +21°C° 0.1 mm 2 mps 607 mmHg 55%
    17:00 +19°C° 0.2 mm 2 mps 606 mmHg 64%
    18:00 +19°C° 0.2 mm 1 mps 606 mmHg 72%
    19:00 +18°C° 0.2 mm 1 mps 605 mmHg 81%
    20:00 +15°C° 0 mm 1 mps 605 mmHg 85%
    21:00 +13°C° 0 mm 1 mps 604 mmHg 88%
    22:00 +11°C° 0 mm 1 mps 603 mmHg 91%
    23:00 +11°C° 0 mm 1 mps 603 mmHg 90%

    23 July, Tuesday

    Time Temperature Precipitation Wind Pressure Humidity
    00:00 +11°C° 0 mm 1 mps 603 mmHg 89%
    01:00 +10°C° 0 mm 1 mps 603 mmHg 88%
    02:00 +10°C° 0 mm 1 mps 602 mmHg 88%
    03:00 +10°C° 0 mm 1 mps 602 mmHg 87%
    04:00 +9°C° 0 mm 1 mps 602 mmHg 87%
    05:00 +10°C° 0 mm 0 mps 603 mmHg 82%
    06:00 +13°C° 0 mm 0 mps 604 mmHg 76%
    07:00 +15°C° 0 mm 0 mps 604 mmHg 71%
    08:00 +17°C° 0 mm 0 mps 605 mmHg 61%
    09:00 +21°C° 0 mm 1 mps 606 mmHg 51%
    10:00 +23°C° 0 mm 1 mps 607 mmHg 41%
    11:00 +24°C° 0 mm 1 mps 607 mmHg 38%
    12:00 +25°C° 0 mm 1 mps 607 mmHg 35%
    13:00 +26°C° 0 mm 2 mps 607 mmHg 32%
    14:00 +25°C° 0 mm 2 mps 607 mmHg 33%
    15:00 +25°C° 0 mm 2 mps 606 mmHg 35%
    16:00 +25°C° 0 mm 2 mps 606 mmHg 37%
    17:00 +23°C° 0 mm 2 mps 605 mmHg 48%
    18:00 +20°C° 0 mm 2 mps 605 mmHg 60%
    19:00 +20°C° 0 mm 1 mps 604 mmHg 72%
    20:00 +18°C° 0 mm 1 mps 603 mmHg 78%
    21:00 +14°C° 0 mm 1 mps 602 mmHg 84%
    22:00 +11°C° 0 mm 0 mps 601 mmHg 90%
    23:00 +12°C° 0 mm 1 mps 601 mmHg 89%
    Show more